Flag for U.S.A. Weather past 2 weeks in Montgomery, Alabama, U.S.A.

Now
76 °F

Partly sunny.


Feels Like: 78 °F
Forecast: 51 / 70 °F
Wind: 8 mph from Northeast

Location: Maxwell Air Force Base / Montgomery


UV Index: 5 (Moderate)

Visibility: 10 mi


Pressure: 30.06 "Hg

Humidity: 57%

Dew point: 60 °F

Location of MontgomeryLocation

Historic Weather in Montgomery

°F

Montgomery temperature yesterday

Maximum temperature yesterday: 65 °F (at 12:58 AM)
Minimum temperature yesterday: 58 °F (at 11:58 AM)
Average temperature yesterday: 60 °F

Past Weeks' High & Low Weather Summary

 TemperatureHumidityPressure
High83 °F (Apr 13, 3:58 PM)100% (Apr 6, 8:03 AM)30.36 "Hg (Apr 6, 8:03 AM)
Low40 °F (Apr 16, 5:58 AM)29% (Apr 9, 3:58 PM)29.63 "Hg (Apr 7, 2:58 PM)
Average62 °F73%30.05 "Hg
* Reported Apr 4 4:58 PM — Apr 19 4:58 PM, Montgomery, Weather by CustomWeather, © 2014

Note: Actual official high and low records may vary slightly from our data, if they occured in-between our weather recording intervals... More about our weather records

Advertising

Historic Weather Conditions — Data for Previous 24 hours

 ConditionsComfort  
Time TempWeatherWind HumidityBarometerVisibility
4:58 PM
Apr 19
76 °FOvercast.10 mph56%30.06 "Hg10 mi
3:58 PM76 °FPassing clouds.13 mph58%30.06 "Hg10 mi
2:58 PM77 °FScattered clouds.18 mph57%30.06 "Hg10 mi
1:58 PM73 °FScattered clouds.12 mph67%30.09 "Hg10 mi
12:58 PM73 °FMore clouds than sun.8 mph62%30.09 "Hg10 mi
11:58 AM73 °FMostly cloudy.7 mph58%30.09 "Hg10 mi
10:58 AM71 °FOvercast.7 mph63%30.09 "Hg10 mi
9:58 AM69 °FScattered clouds.7 mph66%30.10 "Hg10 mi
8:58 AM65 °FOvercast.6 mph77%30.09 "Hg10 mi
7:58 AM61 °FPartly sunny.6 mph92%30.09 "Hg10 mi
6:58 AM58 °FPassing clouds.6 mph97%30.08 "Hg10 mi
5:58 AM59 °FMostly cloudy.7 mph94%30.08 "Hg10 mi
5:04 AM59 °FOvercast.12 mph94%30.07 "Hg10 mi
4:58 AM58 °FDrizzle. Overcast.10 mph98%30.08 "Hg10 mi
3:58 AM58 °FOvercast.10 mph96%30.08 "Hg10 mi
2:58 AM58 °FPassing clouds.10 mph92%30.07 "Hg10 mi
1:58 AM58 °FOvercast.8 mph91%30.08 "Hg10 mi
12:58 AM58 °FPassing clouds.8 mph93%30.09 "Hg10 mi
11:58 PM
Apr 18
58 °FPassing clouds.10 mph94%30.10 "Hg10 mi
10:58 PM59 °FMostly cloudy.9 mph94%30.11 "Hg10 mi
9:58 PM59 °FOvercast.9 mph94%30.12 "Hg10 mi
8:58 PM60 °FOvercast.8 mph94%30.13 "Hg10 mi
7:58 PM60 °FOvercast.10 mph94%30.10 "Hg10 mi
6:58 PM60 °FMostly cloudy.10 mph95%30.09 "Hg10 mi
Weather by CustomWeather, © 2014

See weather overview